TimeMDT,TemperatureF,Dew PointF,Humidity,Sea Level PressureIn,VisibilityMPH,Wind Direction,Wind SpeedMPH,Gust SpeedMPH,PrecipitationIn,Events,Conditions,WindDirDegrees,DateUTC
12:53 AM,30.0,21.9,72,29.97,10.0,SE,4.6,-,N/A,,Clear,130,2013-04-03 06:53:00
1:53 AM,28.9,21.0,72,29.99,10.0,East,5.8,-,N/A,,Clear,90,2013-04-03 07:53:00
2:53 AM,27.0,21.0,78,30.01,10.0,East,3.5,-,N/A,,Clear,80,2013-04-03 08:53:00
3:53 AM,27.0,19.9,75,30.03,10.0,East,4.6,-,N/A,,Clear,90,2013-04-03 09:53:00
4:53 AM,25.0,19.0,78,30.04,10.0,ENE,6.9,-,N/A,,Clear,70,2013-04-03 10:53:00
5:53 AM,26.1,19.9,78,30.06,10.0,ENE,5.8,-,N/A,,Clear,70,2013-04-03 11:53:00
6:53 AM,24.1,19.0,81,30.09,10.0,ENE,4.6,-,N/A,,Clear,60,2013-04-03 12:53:00
7:53 AM,28.9,21.9,75,30.12,10.0,ENE,5.8,-,N/A,,Clear,70,2013-04-03 13:53:00
8:53 AM,41.0,28.0,60,30.10,10.0,ENE,3.5,-,N/A,,Clear,70,2013-04-03 14:53:00
9:53 AM,48.0,28.9,48,30.09,10.0,Calm,Calm,-,N/A,,Clear,0,2013-04-03 15:53:00
10:53 AM,54.0,27.0,35,30.06,10.0,North,11.5,19.6,N/A,,Partly Cloudy,360,2013-04-03 16:53:00
11:53 AM,57.9,27.0,31,30.04,10.0,NNW,12.7,17.3,N/A,,Clear,330,2013-04-03 17:53:00
12:53 PM,59.0,24.1,26,30.03,10.0,NW,10.4,18.4,N/A,,Clear,310,2013-04-03 18:53:00
1:53 PM,63.0,21.9,21,30.01,10.0,North,12.7,21.9,N/A,,Partly Cloudy,360,2013-04-03 19:53:00
2:53 PM,64.0,19.0,18,30.00,10.0,NW,16.1,25.3,N/A,,Clear,310,2013-04-03 20:53:00
3:53 PM,66.0,18.0,16,29.99,10.0,North,10.4,26.5,N/A,,Clear,350,2013-04-03 21:53:00
4:53 PM,64.9,15.1,15,30.00,10.0,NW,10.4,21.9,N/A,,Clear,320,2013-04-03 22:53:00
5:53 PM,64.0,15.1,15,30.01,10.0,NNW,12.7,23.0,N/A,,Clear,330,2013-04-03 23:53:00
6:53 PM,62.1,14.0,15,30.03,10.0,NNW,10.4,-,N/A,,Clear,330,2013-04-04 00:53:00
7:53 PM,55.9,12.0,18,30.05,10.0,NNW,8.1,-,N/A,,Clear,330,2013-04-04 01:53:00
8:53 PM,53.1,17.1,24,30.06,10.0,NNW,10.4,16.1,N/A,,Clear,330,2013-04-04 02:53:00
9:53 PM,50.0,14.0,24,30.07,10.0,Variable,4.6,-,N/A,,Clear,0,2013-04-04 03:53:00
10:53 PM,44.1,16.0,32,30.09,10.0,ENE,6.9,-,N/A,,Clear,60,2013-04-04 04:53:00
11:53 PM,35.1,15.1,44,30.11,10.0,ENE,6.9,-,N/A,,Clear,60,2013-04-04 05:53:00